RH
5 23 27 24 21 12 13 16 34 36 30 28 29 29 17 12 11 10 12 16 22 26 28 28 25 37 41 61 70 58 56 37 40 48 72 68 76 73 92 100 100 100 94 30 15 10 10
5 23 28 27 23 20 12 13 26 40 34 31 33 36 21 14 12 12 14 17 22 28 34 37 33 40 49 53 65 72 67 53 43 56 70 78 81 77 84 91 100 99 100 91 28 16 11
4 21 28 30 25 25 14 13 18 40 38 34 33 38 28 16 15 14 15 18 22 28 36 43 44 40 52 52 51 67 71 76 54 59 71 100 85 84 100 87 98 98 100 92 58 28 16
4 16 28 30 25 28 21 16 16 22 46 39 34 39 31 19 18 16 17 18 20 28 35 43 38 37 42 51 47 60 62 65 45 49 57 87 98 87 78 82 99 96 93 100 76 40 25
4 16 26 26 26 28 26 16 21 19 37 46 38 41 35 21 20 18 19 19 20 28 34 41 34 31 31 46 53 58 50 66 61 44 46 52 75 98 100 85 95 99 92 88 96 51 31
4 15 22 24 26 29 24 19 19 24 20 46 43 41 35 28 21 21 20 21 20 25 31 37 36 26 29 38 46 65 56 58 63 78 60 52 57 65 80 90 94 91 95 100 84 83 36
4 16 29 25 21 32 28 26 22 19 24 20 51 41 39 37 27 23 22 23 19 22 28 31 42 29 24 29 41 47 68 55 57 58 90 76 59 51 62 72 78 90 99 93 92 63 66
4 20 40 47 22 19 35 30 26 23 22 26 20 53 43 44 39 26 27 21 23 20 26 29 36 40 29 28 34 32 41 60 61 59 66 57 68 52 54 61 76 86 91 78 77 74 62
5 19 33 44 27 18 21 36 32 25 20 27 32 23 53 46 46 38 32 28 22 21 23 27 31 48 41 36 37 34 34 35 46 58 63 61 73 62 61 66 73 79 94 83 78 80 65
6 22 29 48 29 14 19 24 34 31 24 19 32 38 25 49 50 47 43 37 25 23 22 24 29 38 56 47 44 50 46 42 43 45 58 65 74 85 76 74 73 82 81 82 85 73 59
11 29 42 56 27 23 14 21 27 34 28 23 18 29 40 29 41 54 49 47 36 25 27 23 26 31 43 55 49 50 53 48 46 45 52 59 66 67 85 81 91 89 85 82 88 63 50
21 30 48 52 50 19 22 16 22 26 33 28 21 17 26 38 38 33 58 52 49 35 29 30 24 27 31 42 58 61 54 55 47 51 52 53 56 68 72 76 83 99 97 73 58 88 55
30 31 40 50 51 22 19 23 21 22 26 30 28 18 17 27 35 47 31 59 54 47 36 30 33 26 27 31 43 60 63 62 58 55 63 70 70 60 61 86 79 99 93 98 69 98 81
32 28 28 50 62 61 32 21 30 22 24 26 29 25 17 17 30 43 57 36 60 55 49 37 32 34 29 26 32 42 55 70 75 71 72 61 67 67 64 81 87 95 100 100 99 76 88
36 30 44 61 72 62 64 59 33 24 25 24 25 24 18 16 17 31 52 64 43 62 56 50 39 34 35 34 27 31 41 48 66 76 68 67 67 70 66 60 70 88 93 100 100 82 52
46 43 40 60 66 60 35 38 52 40 25 27 24 22 19 15 17 20 32 68 68 49 61 59 53 43 37 36 38 33 29 37 40 52 67 70 82 80 81 76 75 80 88 90 80 86 83
55 51 53 68 80 87 88 83 66 56 51 32 30 30 26 25 21 20 18 34 77 72 57 63 64 56 49 40 39 38 40 29 34 39 40 61 67 78 77 80 78 86 72 66 64 64 74
95 87 88 88 91 94 85 92 88 76 73 46 32 33 39 39 37 29 20 16 37 82 78 64 63 67 60 54 47 42 42 42 42 32 35 38 46 66 73 79 86 77 78 76 74 68 56
99 96 93 95 94 89 89 79 84 85 88 88 66 40 36 38 43 46 40 24 16 45 84 82 71 65 68 67 61 57 46 45 48 44 46 40 36 39 39 46 50 62 81 78 59 59 48
87 92 91 87 93 96 99 99 95 90 89 98 87 88 66 45 39 42 49 44 31 17 40 82 89 72 68 73 73 66 62 56 46 50 51 47 49 49 45 41 38 37 39 42 45 48 53
7 6 7 10 12 13 34 67 59 48 50 67 94 91 92 80 76 52 42 60 49 38 21 38 79 95 74 72 74 81 76 67 65 55 51 52 53 57 57 57 50 50 41 32 33 38 40
21 18 18 16 15 14 12 12 10 9 9 20 29 66 78 80 93 94 87 61 57 48 41 26 38 77 97 90 76 76 80 84 77 69 66 57 56 54 57 58 61 65 59 50 43 35 30
48 49 50 49 46 42 39 34 36 34 28 17 11 12 26 42 45 60 90 93 74 74 68 44 21 54 74 97 93 92 87 81 81 91 77 71 69 60 54 55 50 55 60 61 62 61 53
12 13 14 14 14 15 19 27 38 43 46 44 34 26 17 11 16 25 41 72 100 98 90 79 39 20 36 66 95 97 94 97 94 86 92 96 85 72 66 64 57 53 54 54 57 59 62
9 8 8 7 6 6 5 5 5 6 7 15 31 37 35 24 18 12 14 24 34 99 93 72 81 51 20 30 59 90 87 98 99 96 98 94 93 100 84 70 65 67 72 68 61 59 60
10 9 9 8 8 7 6 5 4 4 3 3 4 6 15 36 36 28 20 13 14 23 48 92 92 99 39 24 22 40 71 81 94 99 98 98 99 90 89 96 86 76 74 77 76 70 68
6 6 8 8 7 6 6 5 4 4 4 4 4 4 4 4 5 28 36 29 20 15 16 32 93 99 99 54 26 21 30 52 74 92 98 98 97 96 100 98 95 97 94 91 85 82 82
9 11 9 10 10 8 7 6 5 4 4 4 3 3 3 4 3 3 6 26 34 26 16 15 52 60 93 95 72 30 21 27 41 56 81 96 96 98 99 100 98 99 98 97 91 90 97
10 9 8 6 6 5 5 4 4 3 3 3 3 2 2 3 3 3 3 4 12 29 23 20 15 24 80 89 80 87 56 30 28 27 44 56 83 87 90 94 100 97 94 99 98 98 96
Wind_Speed
13 15 18 22 23 21 14 16 16 14 12 12 14 16 18 22 27 31 34 39 43 46 47 46 40 27 21 19 22 29 26 15 12 11 11 9 12 17 19 23 31 35 45 66 74 73 73
13 13 16 20 22 24 15 16 17 15 12 12 14 17 18 21 26 30 33 38 41 44 47 48 43 32 23 23 25 25 24 16 8 8 10 9 10 15 18 17 21 29 32 44 67 69 69
13 13 15 19 20 24 18 16 17 17 13 12 14 17 19 21 25 29 33 36 39 42 44 48 44 36 25 23 24 24 28 17 7 7 7 7 4 10 16 15 17 22 25 33 51 61 63
14 13 15 17 18 21 22 17 17 18 16 14 14 16 18 20 25 29 32 34 37 39 42 46 44 38 26 22 24 23 27 19 7 7 7 4 6 7 15 16 18 20 28 21 38 49 54
16 14 16 17 17 18 21 19 17 18 18 16 15 16 18 19 23 27 31 33 36 37 39 43 43 38 25 24 23 21 21 23 12 6 6 5 9 12 16 15 17 18 18 24 29 39 47
16 14 16 16 14 15 17 19 19 19 19 18 16 15 18 20 23 26 29 32 34 36 38 41 43 41 30 25 24 21 20 24 21 19 11 9 7 10 12 16 16 17 18 19 26 32 40
18 15 16 18 16 14 15 17 19 20 20 19 17 15 16 19 22 25 28 32 33 33 36 40 41 38 35 29 26 25 22 22 21 23 21 13 6 4 13 18 15 18 7 20 20 31 35
19 17 17 19 21 17 16 18 18 19 22 23 21 18 15 17 20 22 27 30 32 31 32 36 38 35 36 33 25 24 24 20 22 18 23 18 14 5 2 11 15 12 10 11 19 24 34
21 19 18 20 22 21 18 19 20 19 20 22 23 21 19 17 19 21 24 27 29 30 29 32 35 34 31 33 30 24 23 23 19 14 17 13 14 12 4 4 13 13 5 12 17 21 30
20 20 19 21 23 22 21 20 21 21 20 20 22 23 23 21 19 20 23 25 26 28 28 29 30 31 31 28 27 25 24 24 18 13 11 12 14 12 9 6 6 7 9 10 15 19 26
22 21 21 23 23 23 23 21 21 22 22 21 20 22 24 23 22 20 21 24 25 25 28 28 27 27 30 29 26 24 21 22 24 21 13 11 11 14 12 7 4 2 3 9 15 17 22
25 24 25 25 25 25 24 24 23 23 23 22 21 20 21 24 24 22 22 21 24 24 24 25 24 25 26 28 26 25 23 21 21 21 22 19 12 6 6 4 2 3 1 9 14 15 16
27 27 26 26 27 26 26 26 25 25 26 25 22 21 21 20 23 23 23 22 21 23 23 23 24 23 23 25 25 25 26 23 20 18 17 16 13 14 5 1 5 6 9 6 10 12 12
30 29 28 28 29 30 27 27 27 25 26 27 26 23 21 22 21 21 23 23 22 21 22 22 21 22 21 22 22 21 23 22 22 20 16 19 17 16 15 7 6 7 11 13 6 7 10
33 32 33 34 33 32 31 30 29 29 27 28 28 27 24 22 22 21 22 21 22 20 19 22 21 19 20 20 20 20 17 18 19 19 19 16 16 16 20 19 11 6 4 6 9 4 8
37 37 37 38 38 38 36 34 33 33 32 30 29 28 28 25 22 22 22 22 21 21 20 19 21 20 18 19 19 18 17 15 15 17 20 15 14 13 15 17 17 13 7 4 4 3 0
42 42 42 42 43 42 42 41 39 37 38 37 34 33 30 29 25 24 23 22 21 20 20 19 19 20 20 18 17 18 17 16 14 13 14 13 17 14 14 14 13 12 14 11 6 5 4
48 48 48 48 49 46 46 46 44 43 43 42 41 39 35 33 30 28 25 24 22 22 20 20 19 19 20 20 19 17 17 16 15 12 12 11 10 9 11 16 12 8 8 6 6 5 6
53 54 54 54 55 53 51 52 53 49 47 46 46 44 41 38 38 33 30 27 25 25 23 21 20 20 18 21 19 18 16 16 15 13 11 10 9 9 9 8 6 6 7 8 7 2 7
50 52 51 52 54 56 53 53 52 53 52 52 53 52 47 43 41 40 37 31 29 28 28 26 22 20 19 18 22 20 19 17 16 15 13 13 12 8 8 8 8 7 5 4 5 4 1
55 55 55 54 53 52 52 47 48 52 53 49 51 56 55 52 48 45 44 41 32 34 30 33 28 26 21 19 18 20 21 19 19 18 16 14 14 13 10 9 8 8 7 5 3 3 1
64 64 65 64 63 62 61 59 57 56 56 56 55 47 51 51 52 54 51 45 41 36 38 33 34 33 28 22 22 19 19 21 20 21 20 19 17 17 15 16 12 10 9 8 6 5 6
61 62 65 67 68 68 68 66 65 65 63 62 63 58 56 53 50 49 49 53 47 45 41 39 36 37 34 35 26 24 22 20 20 21 22 23 23 23 19 20 18 13 16 14 11 8 9
57 56 57 58 59 59 61 62 64 65 67 67 68 68 66 62 60 56 50 47 52 52 50 43 40 40 38 38 38 31 27 25 23 21 22 22 24 26 26 25 23 21 19 18 17 15 13
64 65 64 63 63 62 61 61 61 61 62 63 66 72 74 71 67 63 59 54 50 52 54 52 47 43 42 42 43 41 36 31 27 26 23 23 26 26 25 26 26 25 24 23 23 21 21
67 68 70 72 72 71 70 69 68 68 68 67 65 68 73 76 72 71 67 62 58 53 52 55 54 51 46 45 46 47 42 39 34 31 27 26 28 29 29 27 27 22 25 27 29 25 26
69 73 76 77 78 76 77 78 78 76 75 76 75 75 77 75 69 73 74 69 65 62 56 55 57 57 54 50 49 49 47 44 41 36 32 32 30 27 28 29 29 28 27 29 28 29 29
78 81 81 82 83 84 85 85 86 87 86 85 83 86 87 85 75 74 74 76 71 68 64 60 58 57 59 57 55 50 50 47 48 43 41 40 37 32 31 30 28 27 29 31 32 32 32
82 84 84 83 86 88 89 90 91 93 94 95 94 93 94 97 83 84 80 76 77 72 69 69 64 62 60 62 59 59 53 50 50 50 44 44 43 41 38 34 31 29 28 28 32 34 35
Wind_Direction
344 356 3 3 4 3 358 354 357 356 349 340 343 347 348 351 356 358 357 358 360 2 7 9 2 356 356 355 348 345 337 333 313 277 259 256 247 224 217 218 219 216 213 216 217 217 215
338 348 357 359 3 5 357 354 356 358 353 344 347 347 345 350 355 357 357 358 0 5 8 7 2 356 353 355 353 352 353 348 330 296 280 250 229 212 202 205 220 220 216 218 218 217 215
329 340 348 354 359 8 359 356 357 358 353 344 345 348 347 350 354 358 356 357 1 6 7 10 3 360 355 355 355 359 3 356 358 338 306 259 216 218 195 215 211 206 198 232 220 219 217
320 328 337 347 351 4 4 357 0 358 355 348 347 351 350 350 353 357 356 357 0 6 6 12 7 4 2 1 3 11 14 7 15 19 350 229 195 189 207 209 210 210 221 219 221 219 217
315 319 326 334 343 358 4 1 357 359 359 353 350 353 354 350 353 359 358 357 359 6 8 12 13 11 11 12 9 15 19 25 19 10 351 342 242 199 191 204 210 212 216 219 219 220 216
307 308 312 319 331 346 355 3 0 358 359 359 352 354 356 353 353 0 1 0 359 5 10 12 18 20 21 11 15 7 16 27 32 32 8 350 330 229 213 206 214 215 223 218 217 215 216
298 296 304 309 310 323 338 348 356 357 358 359 357 347 351 355 354 357 3 3 0 2 9 11 16 25 32 23 14 13 7 13 13 17 17 18 1 295 223 223 215 206 188 223 222 215 211
290 288 298 306 307 309 318 330 342 350 353 356 356 352 340 347 354 354 0 5 4 2 7 12 13 21 27 29 22 14 10 12 15 25 20 32 30 35 272 232 211 214 243 212 221 222 212
285 284 291 300 302 305 305 313 326 336 345 350 354 354 350 339 347 352 355 2 4 5 7 12 14 15 20 30 30 25 22 14 10 15 22 36 42 49 75 167 200 211 239 222 212 213 209
277 279 284 294 298 300 304 303 311 321 330 339 344 352 353 350 342 342 349 356 1 4 7 11 16 16 19 26 31 28 38 39 29 6 5 32 49 52 67 122 178 216 251 226 209 204 197
273 273 281 288 291 295 296 299 301 310 318 326 333 341 349 352 351 340 336 345 354 0 7 8 12 16 18 23 28 25 28 38 49 43 35 39 32 26 43 131 127 258 307 216 199 192 194
270 270 277 284 290 291 295 297 298 300 306 314 322 329 337 343 348 349 341 333 343 355 4 9 12 13 15 21 25 28 29 30 43 56 61 53 35 19 14 40 50 359 47 187 191 181 194
269 271 277 283 286 288 290 294 297 297 298 303 310 318 323 331 339 345 347 342 336 340 352 2 10 11 11 14 20 22 28 31 32 44 45 48 49 44 36 29 65 85 131 146 184 181 196
269 269 272 276 281 283 284 286 290 291 292 297 301 305 310 317 325 334 342 343 343 330 335 349 0 9 11 10 13 18 24 27 32 34 42 47 45 50 48 75 87 119 133 85 129 200 203
268 268 269 275 278 278 279 280 282 284 285 289 293 297 299 304 312 320 329 337 340 340 328 331 344 358 6 11 10 9 16 24 27 32 33 46 57 60 76 77 76 112 172 149 91 126 201
265 266 267 272 275 275 274 275 278 282 279 280 283 287 292 295 299 305 312 323 329 334 334 324 324 336 350 1 8 12 5 11 14 14 28 37 51 62 69 78 83 89 105 144 76 48 348
263 264 266 269 271 272 274 275 274 276 278 278 277 278 280 285 289 292 298 305 314 320 326 328 320 317 327 341 352 2 11 4 8 13 17 29 49 59 65 68 64 81 102 100 104 93 113
259 261 263 264 267 269 273 272 270 271 273 276 276 274 274 276 279 282 285 290 296 305 312 316 320 318 311 317 328 341 351 2 10 5 6 13 18 23 45 49 58 66 34 56 80 87 108
276 272 271 269 270 269 266 267 272 272 269 268 270 272 273 274 275 275 278 281 285 290 295 301 307 310 312 306 306 315 326 335 348 358 6 0 356 358 3 2 4 26 21 1 353 99 129
276 277 278 279 277 274 271 271 273 275 274 272 270 268 265 267 270 273 274 274 277 280 283 290 292 296 301 304 304 298 302 309 318 330 339 346 356 0 356 353 356 353 344 353 345 346 133
276 276 276 276 276 275 278 277 275 276 279 280 270 269 269 268 263 263 267 270 270 275 273 280 285 282 286 291 294 299 296 289 294 300 307 315 324 331 333 341 344 350 339 321 299 255 271
275 275 275 274 274 274 274 274 272 272 273 274 275 274 270 267 268 265 260 263 268 265 271 268 276 282 281 277 280 285 288 290 286 282 285 290 296 301 308 311 318 328 327 330 322 303 289
274 272 271 271 271 271 272 272 273 272 270 268 272 271 270 268 268 268 269 261 258 264 258 265 265 271 277 283 273 275 278 282 283 283 280 279 281 282 285 288 295 303 304 309 309 296 293
282 277 272 269 268 267 268 268 267 267 269 269 268 268 266 266 266 268 267 263 261 258 260 253 260 263 266 273 279 276 272 272 271 276 279 278 277 274 273 275 277 282 286 290 292 289 285
289 287 284 281 278 274 271 269 269 267 265 265 265 266 265 263 263 263 264 264 261 260 257 259 249 251 259 263 269 273 276 272 271 269 267 271 273 274 273 271 270 272 274 274 272 274 276
284 283 282 282 280 279 276 274 272 270 269 268 265 264 263 261 259 260 258 259 260 258 259 263 258 251 251 258 260 264 268 276 276 275 272 269 270 272 272 269 270 268 268 266 266 265 267
280 279 278 276 275 275 274 272 270 269 269 269 268 265 263 261 261 259 257 255 254 256 255 256 258 255 248 244 253 257 262 267 272 274 278 277 274 274 277 278 276 272 266 266 267 265 261
280 280 279 278 277 274 271 270 267 266 267 267 266 264 263 260 258 259 258 257 252 251 253 254 252 254 257 253 246 253 257 260 263 270 276 277 277 278 278 281 284 284 276 267 265 265 266
285 283 281 278 277 276 273 271 270 268 266 265 263 261 258 257 258 254 254 254 256 249 246 248 251 250 248 252 256 250 250 255 257 261 263 271 278 280 279 279 284 283 285 282 274 269 266